Back to catalog

STARLINK-31355

AliveCommunicationsVLEO
NORAD 58978·PAYLOAD·🇺🇸 United States

Launched Feb 15, 2024 from Vandenberg Space Force Base

Loading…

Next Passes (next 24 hours)

TLE

FreshSource: CelesTrak SupGP

Epoch: Sep 14, 2026, 14:31 UTC

1 58978C 24031P   26257.60534722  .00055456  00000+0  16387-2 0  2576
2 58978  53.1575 137.2412 0001320  88.6373 306.4561 15.34358323    19

Track STARLINK-31355 in real time with AllMySat

Download on the App Store